CAL1723 ZGGG-UACC

Flight info

Callsign CAL1723
Flight time N/A
Altitude 38100
Route AGVIL1 AGVIL W24 OSNOV G586 QP B330 ELKAL W179 RIRKI W232 WFX W179 OMBON W195 VIDEK/K0896S1190 W195 LAXAL/K0893S1220 W195 UPKOD W565 DNC W622 BUKPU W197 ANDIM B215 IBANO G470 AKLAS W192 FKG A368 SARIN/K0891F400 M166 AGZ W348 GORBO M166 KRG N170 BANOS
Aircraft A359/H-SDE2E3GHIJ3J4J5LM1ORWXY/LB1D1

Departure

Time N/A
Airport Guangzhou Baiyun International Airport (ZGGG)

Arrival

Time 2026-05-06 11:33
Airport Nursultan Nazarbayev International Airport (UACC)
Time Latitude Longitude Altitude Speed Heading
2026-05-06 08:54 40.58991 94.39622 40153 ft 462 kts 304°
2026-05-06 08:54 40.63024 94.32875 40154 ft 462 kts 304°
2026-05-06 08:55 40.67036 94.26128 40153 ft 462 kts 304°
2026-05-06 08:55 40.71047 94.19381 40153 ft 462 kts 304°
2026-05-06 08:56 40.75001 94.12723 40153 ft 462 kts 304°
2026-05-06 08:56 40.78979 94.06014 40153 ft 463 kts 304°
2026-05-06 08:57 40.82914 93.99365 40153 ft 463 kts 304°
2026-05-06 08:57 40.86859 93.92684 40153 ft 462 kts 304°
2026-05-06 08:58 40.90815 93.85976 40152 ft 463 kts 304°
2026-05-06 08:58 40.94953 93.79446 40153 ft 464 kts 307°
2026-05-06 08:59 40.99147 93.72963 40152 ft 463 kts 307°
2026-05-06 08:59 41.03339 93.66466 40153 ft 462 kts 307°
2026-05-06 09:00 41.07478 93.60033 40151 ft 461 kts 307°
2026-05-06 09:00 41.11649 93.53542 40150 ft 461 kts 308°
2026-05-06 09:01 41.15807 93.47104 40151 ft 460 kts 308°
2026-05-06 09:01 41.19957 93.40641 40153 ft 461 kts 308°
2026-05-06 09:02 41.24086 93.34176 40154 ft 461 kts 307°
2026-05-06 09:02 41.28213 93.27669 40153 ft 460 kts 307°
2026-05-06 09:03 41.32330 93.21162 40150 ft 459 kts 307°
2026-05-06 09:03 41.36444 93.14660 40152 ft 460 kts 307°
2026-05-06 09:04 41.40554 93.08157 40152 ft 460 kts 307°
2026-05-06 09:04 41.44665 93.01633 40152 ft 461 kts 307°
2026-05-06 09:05 41.48811 92.95041 40151 ft 462 kts 308°
2026-05-06 09:05 41.52940 92.88468 40151 ft 463 kts 308°
2026-05-06 09:06 41.57076 92.81873 40151 ft 464 kts 308°
2026-05-06 09:06 41.61216 92.75256 40152 ft 464 kts 308°
2026-05-06 09:07 41.65369 92.68603 40151 ft 464 kts 308°
2026-05-06 09:07 41.69479 92.62001 40151 ft 464 kts 308°
2026-05-06 09:08 41.73584 92.55390 40152 ft 464 kts 308°
2026-05-06 09:08 41.77721 92.48717 40152 ft 464 kts 308°
2026-05-06 09:09 41.81801 92.42117 40151 ft 464 kts 308°
2026-05-06 09:09 41.85931 92.35426 40152 ft 464 kts 308°
2026-05-06 09:10 41.89996 92.28799 40154 ft 464 kts 308°
2026-05-06 09:10 41.94093 92.22110 40154 ft 464 kts 308°
2026-05-06 09:11 41.98214 92.15382 40152 ft 464 kts 308°
2026-05-06 09:11 42.02307 92.08688 40152 ft 464 kts 308°
2026-05-06 09:12 42.06378 92.02016 40152 ft 464 kts 308°
2026-05-06 09:12 42.10487 91.95270 40153 ft 463 kts 308°
2026-05-06 09:13 42.14595 91.88552 40153 ft 464 kts 308°
2026-05-06 09:13 42.18688 91.81816 40152 ft 464 kts 308°
2026-05-06 09:14 42.22861 91.75172 40152 ft 464 kts 311°
2026-05-06 09:14 42.27456 91.68982 40151 ft 465 kts 314°
2026-05-06 09:15 42.32148 91.62994 40152 ft 466 kts 315°
2026-05-06 09:15 42.36868 91.56966 40152 ft 466 kts 315°
2026-05-06 09:16 42.41626 91.50866 40150 ft 466 kts 315°
2026-05-06 09:16 42.46329 91.44820 40152 ft 466 kts 315°
2026-05-06 09:17 42.51045 91.38738 40151 ft 466 kts 315°
2026-05-06 09:17 42.55750 91.32657 40153 ft 466 kts 314°
2026-05-06 09:18 42.60419 91.26582 40153 ft 465 kts 314°
2026-05-06 09:18 42.65119 91.20471 40153 ft 465 kts 314°
2026-05-06 09:19 42.69794 91.14387 40152 ft 466 kts 314°
2026-05-06 09:19 42.74462 91.08302 40151 ft 467 kts 314°
2026-05-06 09:20 42.79161 91.02165 40152 ft 467 kts 314°
2026-05-06 09:20 42.83969 90.95839 40152 ft 467 kts 313°
2026-05-06 09:21 42.88425 90.89103 40152 ft 467 kts 307°
2026-05-06 09:21 42.92255 90.81970 40152 ft 465 kts 302°
2026-05-06 09:22 42.95692 90.74508 40152 ft 463 kts 301°
2026-05-06 09:22 42.99078 90.67024 40153 ft 462 kts 301°
2026-05-06 09:23 43.02467 90.59532 40152 ft 460 kts 301°
2026-05-06 09:23 43.05815 90.52117 40150 ft 460 kts 301°
2026-05-06 09:24 43.09170 90.44679 40151 ft 459 kts 301°
2026-05-06 09:24 43.12532 90.37244 40153 ft 460 kts 301°
2026-05-06 09:25 43.15902 90.29760 40153 ft 459 kts 301°
2026-05-06 09:25 43.19283 90.22183 40152 ft 460 kts 300°
2026-05-06 09:26 43.22686 90.14557 40141 ft 460 kts 301°
2026-05-06 09:26 43.26056 90.07001 40132 ft 460 kts 301°
2026-05-06 09:27 43.29489 89.99279 40128 ft 460 kts 300°
2026-05-06 09:27 43.32881 89.91620 40125 ft 460 kts 301°
2026-05-06 09:28 43.36244 89.84006 40124 ft 460 kts 300°
2026-05-06 09:28 43.39615 89.76350 40124 ft 460 kts 301°
2026-05-06 09:29 43.42912 89.68845 40123 ft 460 kts 301°
2026-05-06 09:29 43.45993 89.61808 40123 ft 460 kts 300°
2026-05-06 09:30 43.49282 89.54280 40124 ft 460 kts 300°
2026-05-06 09:30 43.52596 89.46666 40123 ft 460 kts 301°
2026-05-06 09:31 43.55757 89.39394 40124 ft 459 kts 301°
2026-05-06 09:31 43.59098 89.31882 40124 ft 460 kts 301°
2026-05-06 09:32 43.62438 89.24395 40125 ft 460 kts 301°
2026-05-06 09:32 43.65781 89.16875 40124 ft 460 kts 301°
2026-05-06 09:33 43.69132 89.09319 40125 ft 460 kts 301°
2026-05-06 09:33 43.72492 89.01719 40124 ft 460 kts 301°
2026-05-06 09:34 43.75837 88.94138 40123 ft 462 kts 301°
2026-05-06 09:34 43.79213 88.86468 40124 ft 463 kts 300°
2026-05-06 09:35 43.82574 88.78802 40123 ft 465 kts 300°
2026-05-06 09:35 43.85928 88.71134 40123 ft 466 kts 300°
2026-05-06 09:36 43.89300 88.63408 40124 ft 467 kts 300°
2026-05-06 09:36 43.92697 88.55597 40123 ft 467 kts 300°
2026-05-06 09:37 43.96040 88.47895 40123 ft 467 kts 300°
2026-05-06 09:37 43.99378 88.40185 40122 ft 467 kts 300°
2026-05-06 09:38 44.02703 88.32476 40124 ft 466 kts 300°
2026-05-06 09:38 44.06026 88.24734 40125 ft 466 kts 300°
2026-05-06 09:39 44.09327 88.17036 40124 ft 466 kts 300°
2026-05-06 09:39 44.12669 88.09274 40123 ft 466 kts 300°
2026-05-06 09:40 44.15986 88.01571 40123 ft 466 kts 301°
2026-05-06 09:40 44.21572 87.90527 40123 ft 468 kts 306°
2026-05-06 09:41 44.25494 87.83271 40124 ft 468 kts 306°
2026-05-06 09:41 44.29393 87.76026 40124 ft 467 kts 306°
2026-05-06 09:42 44.33274 87.68790 40123 ft 468 kts 306°
2026-05-06 09:42 44.37223 87.61589 40124 ft 467 kts 306°
2026-05-06 09:43 44.41176 87.54425 40124 ft 467 kts 307°
2026-05-06 09:43 44.45148 87.47184 40124 ft 467 kts 306°
2026-05-06 09:44 44.49087 87.39971 40123 ft 467 kts 306°
2026-05-06 09:44 44.53016 87.32748 40125 ft 467 kts 306°
2026-05-06 09:45 44.57022 87.25481 40125 ft 467 kts 307°
2026-05-06 09:45 44.61128 87.18446 40123 ft 467 kts 308°
2026-05-06 09:46 44.65270 87.11338 40125 ft 467 kts 308°
2026-05-06 09:46 44.69424 87.04149 40125 ft 466 kts 308°
2026-05-06 09:47 44.73549 86.96991 40125 ft 466 kts 308°
2026-05-06 09:47 44.77692 86.89816 40124 ft 465 kts 308°
2026-05-06 09:48 44.81818 86.82651 40124 ft 465 kts 308°
2026-05-06 09:48 44.85955 86.75388 40124 ft 464 kts 308°
2026-05-06 09:49 44.89999 86.68175 40123 ft 464 kts 308°
2026-05-06 09:49 44.94067 86.60900 40124 ft 464 kts 308°
2026-05-06 09:50 44.98112 86.53655 40124 ft 464 kts 308°
2026-05-06 09:50 45.02134 86.46433 40122 ft 464 kts 308°
2026-05-06 09:51 45.06221 86.39077 40122 ft 463 kts 308°
2026-05-06 09:51 45.10286 86.31735 40124 ft 462 kts 307°
2026-05-06 09:52 45.14283 86.24525 40124 ft 461 kts 307°
2026-05-06 09:52 45.18246 86.17361 40124 ft 461 kts 307°
2026-05-06 09:53 45.22203 86.10175 40124 ft 461 kts 307°
2026-05-06 09:53 45.26146 86.02988 40125 ft 461 kts 307°
2026-05-06 09:54 45.30083 85.95792 40125 ft 461 kts 307°
2026-05-06 09:54 45.34014 85.88593 40125 ft 461 kts 307°
2026-05-06 09:55 45.37938 85.81381 40124 ft 461 kts 307°
2026-05-06 09:55 45.41859 85.74163 40124 ft 461 kts 307°
2026-05-06 09:56 45.45776 85.66931 40125 ft 462 kts 307°
2026-05-06 09:56 45.49684 85.59694 40125 ft 462 kts 307°
2026-05-06 09:57 45.53598 85.52426 40125 ft 462 kts 307°
2026-05-06 09:57 45.57491 85.45183 40125 ft 461 kts 307°
2026-05-06 09:58 45.61377 85.37927 40124 ft 461 kts 307°
2026-05-06 09:58 45.65261 85.30644 40125 ft 461 kts 306°
2026-05-06 09:59 45.69151 85.23323 40125 ft 461 kts 306°
2026-05-06 09:59 45.73034 85.16067 40125 ft 461 kts 307°
2026-05-06 10:00 45.76931 85.08795 40124 ft 460 kts 307°
2026-05-06 10:00 45.80820 85.01514 40125 ft 458 kts 307°
2026-05-06 10:01 45.84668 84.94289 40125 ft 457 kts 307°
2026-05-06 10:01 45.88513 84.87048 40123 ft 456 kts 307°
2026-05-06 10:02 45.92397 84.79717 40125 ft 456 kts 307°
2026-05-06 10:02 45.96215 84.72491 40123 ft 456 kts 307°
2026-05-06 10:03 46.00071 84.65173 40123 ft 457 kts 307°
2026-05-06 10:03 46.03901 84.57884 40124 ft 457 kts 307°
2026-05-06 10:04 46.07716 84.50607 40124 ft 456 kts 307°
2026-05-06 10:04 46.11554 84.43279 40124 ft 457 kts 307°
2026-05-06 10:05 46.15417 84.35922 40125 ft 457 kts 307°
2026-05-06 10:05 46.19244 84.28555 40124 ft 457 kts 306°
2026-05-06 10:06 46.23039 84.21214 40124 ft 457 kts 306°
2026-05-06 10:06 46.26869 84.13805 40115 ft 456 kts 306°
2026-05-06 10:07 46.30705 84.06345 40096 ft 456 kts 306°
2026-05-06 10:07 46.34524 83.98883 40074 ft 456 kts 306°
2026-05-06 10:08 46.38372 83.91341 40058 ft 457 kts 306°
2026-05-06 10:08 46.42204 83.83810 40048 ft 457 kts 306°
2026-05-06 10:09 46.45969 83.76386 40044 ft 457 kts 306°
2026-05-06 10:09 46.49755 83.68902 40044 ft 457 kts 306°
2026-05-06 10:10 46.53518 83.61443 40044 ft 457 kts 306°
2026-05-06 10:10 46.57292 83.53937 40042 ft 457 kts 306°
2026-05-06 10:11 46.61049 83.46444 40042 ft 457 kts 306°
2026-05-06 10:11 46.64791 83.38956 40042 ft 457 kts 305°
2026-05-06 10:12 46.68303 83.31220 40044 ft 457 kts 302°
2026-05-06 10:12 46.71699 83.23343 40043 ft 457 kts 302°
2026-05-06 10:13 46.75073 83.15504 40043 ft 457 kts 302°
2026-05-06 10:13 46.78501 83.07529 40044 ft 457 kts 302°
2026-05-06 10:14 46.81890 82.99628 40044 ft 457 kts 302°
2026-05-06 10:14 46.85287 82.91684 40044 ft 456 kts 302°
2026-05-06 10:15 46.88770 82.83723 40045 ft 454 kts 303°
2026-05-06 10:15 46.92283 82.75970 40042 ft 454 kts 303°
2026-05-06 10:16 46.95794 82.68185 40042 ft 455 kts 303°
2026-05-06 10:16 46.99307 82.60350 40042 ft 456 kts 303°
2026-05-06 10:17 47.02844 82.52433 40043 ft 457 kts 303°
2026-05-06 10:17 47.06313 82.44637 40041 ft 457 kts 303°
2026-05-06 10:18 47.09803 82.36771 40040 ft 457 kts 303°
2026-05-06 10:18 47.13246 82.29024 40045 ft 458 kts 302°
2026-05-06 10:19 47.16739 82.21122 40041 ft 457 kts 302°
2026-05-06 10:19 47.20220 82.13209 40040 ft 457 kts 302°
2026-05-06 10:20 47.23701 82.05267 40042 ft 458 kts 302°
2026-05-06 10:20 47.27223 81.97227 40044 ft 457 kts 302°
2026-05-06 10:21 47.30742 81.89154 40043 ft 457 kts 302°
2026-05-06 10:21 47.34211 81.81165 40041 ft 458 kts 302°
2026-05-06 10:22 47.37654 81.73202 40042 ft 457 kts 302°
2026-05-06 10:22 47.41105 81.65205 40043 ft 458 kts 302°
2026-05-06 10:23 47.44526 81.57253 40043 ft 457 kts 302°
2026-05-06 10:23 47.47956 81.49257 40041 ft 457 kts 302°
2026-05-06 10:24 47.51349 81.41310 40041 ft 458 kts 302°
2026-05-06 10:24 47.54758 81.33303 40044 ft 458 kts 302°
2026-05-06 10:25 47.58190 81.25258 40044 ft 458 kts 302°
2026-05-06 10:25 47.61716 81.17274 40044 ft 458 kts 302°
2026-05-06 10:26 47.65209 81.09347 40040 ft 458 kts 303°
2026-05-06 10:26 47.68682 81.01428 40041 ft 458 kts 302°
2026-05-06 10:27 47.72154 80.93471 40033 ft 458 kts 302°
2026-05-06 10:27 47.75637 80.85461 40025 ft 458 kts 302°
2026-05-06 10:28 47.79130 80.77415 40019 ft 459 kts 302°
2026-05-06 10:28 47.82574 80.69477 40014 ft 459 kts 302°
2026-05-06 10:29 47.86024 80.61487 40016 ft 459 kts 302°
2026-05-06 10:29 47.89461 80.53499 40015 ft 459 kts 302°
2026-05-06 10:30 47.92753 80.45290 40013 ft 458 kts 298°
2026-05-06 10:30 47.95496 80.36716 40014 ft 458 kts 294°
2026-05-06 10:31 47.98008 80.27937 40015 ft 458 kts 292°
2026-05-06 10:31 48.00482 80.19215 40017 ft 457 kts 292°
2026-05-06 10:32 48.02954 80.10502 40015 ft 457 kts 292°
2026-05-06 10:32 48.05425 80.01771 40015 ft 457 kts 293°
2026-05-06 10:33 48.07906 79.92982 40015 ft 457 kts 292°
2026-05-06 10:33 48.10379 79.84193 40016 ft 457 kts 293°
2026-05-06 10:34 48.12864 79.75434 40014 ft 457 kts 293°
2026-05-06 10:34 48.15329 79.66678 40016 ft 457 kts 293°
2026-05-06 10:35 48.17775 79.57914 40015 ft 458 kts 292°
2026-05-06 10:35 48.20298 79.48824 40015 ft 458 kts 292°
2026-05-06 10:36 48.22774 79.39860 40017 ft 457 kts 293°
2026-05-06 10:36 48.25205 79.31015 40017 ft 457 kts 292°
2026-05-06 10:37 48.27624 79.22160 40016 ft 457 kts 292°
2026-05-06 10:37 48.30030 79.13341 40014 ft 458 kts 291°
2026-05-06 10:38 48.32459 79.04423 40014 ft 461 kts 291°
2026-05-06 10:38 48.34891 78.95448 40013 ft 464 kts 291°
2026-05-06 10:39 48.37325 78.86414 40015 ft 466 kts 291°
2026-05-06 10:39 48.39775 78.77296 40013 ft 466 kts 291°
2026-05-06 10:40 48.42207 78.68209 40016 ft 466 kts 291°
2026-05-06 10:40 48.44633 78.59119 40016 ft 466 kts 291°
2026-05-06 10:41 48.47238 78.50131 40012 ft 468 kts 299°
2026-05-06 10:41 48.50849 78.41876 40016 ft 469 kts 303°
2026-05-06 10:42 48.54601 78.33555 40016 ft 469 kts 302°
2026-05-06 10:42 48.58353 78.25100 40015 ft 468 kts 302°
2026-05-06 10:43 48.62262 78.16231 40015 ft 469 kts 301°
2026-05-06 10:44 48.67695 78.03836 40015 ft 469 kts 301°
2026-05-06 10:44 48.71277 77.95634 40014 ft 469 kts 301°
2026-05-06 10:45 48.74866 77.87390 40016 ft 468 kts 301°
2026-05-06 10:45 48.78463 77.79101 40014 ft 468 kts 301°
2026-05-06 10:46 48.82084 77.70730 40014 ft 468 kts 302°
2026-05-06 10:46 48.85684 77.62387 40015 ft 468 kts 302°
2026-05-06 10:47 48.89292 77.53995 40015 ft 469 kts 302°
2026-05-06 10:47 48.92923 77.45525 40016 ft 469 kts 301°
2026-05-06 10:48 48.96453 77.37260 40022 ft 468 kts 301°
2026-05-06 10:48 49.00058 77.28780 40038 ft 467 kts 301°
2026-05-06 10:49 49.03634 77.20329 40045 ft 467 kts 301°
2026-05-06 10:49 49.07168 77.11969 40050 ft 466 kts 301°
2026-05-06 10:50 49.10665 77.03680 40055 ft 465 kts 301°
2026-05-06 10:50 49.14220 76.95311 40058 ft 466 kts 301°
2026-05-06 10:51 49.17771 76.86898 40058 ft 468 kts 300°
2026-05-06 10:51 49.21291 76.78500 40052 ft 471 kts 300°
2026-05-06 10:52 49.24820 76.70030 40048 ft 472 kts 300°
2026-05-06 10:52 49.28372 76.61475 40044 ft 472 kts 300°
2026-05-06 10:53 49.31911 76.52920 40052 ft 472 kts 300°
2026-05-06 10:53 49.35426 76.44403 40052 ft 472 kts 300°
2026-05-06 10:54 49.38959 76.35815 40048 ft 471 kts 300°
2026-05-06 10:54 49.42503 76.27150 40040 ft 471 kts 299°
2026-05-06 10:55 49.46024 76.18511 40036 ft 472 kts 299°
2026-05-06 10:55 49.49511 76.09940 40042 ft 471 kts 299°
2026-05-06 10:56 49.53005 76.01335 40053 ft 471 kts 299°
2026-05-06 10:56 49.56453 75.92812 40051 ft 472 kts 299°
2026-05-06 10:57 49.59934 75.84183 40046 ft 472 kts 299°
2026-05-06 10:57 49.63431 75.75480 40043 ft 472 kts 299°
2026-05-06 10:58 49.66900 75.66827 40042 ft 471 kts 299°
2026-05-06 10:58 49.70383 75.58108 40043 ft 472 kts 299°
2026-05-06 10:59 49.73830 75.49445 40041 ft 472 kts 299°
2026-05-06 10:59 49.77278 75.40758 40041 ft 471 kts 299°
2026-05-06 11:00 49.80717 75.32060 40043 ft 471 kts 298°
2026-05-06 11:00 49.84134 75.23359 40042 ft 471 kts 298°
2026-05-06 11:01 49.87575 75.14584 40042 ft 471 kts 298°
2026-05-06 11:01 49.90988 75.05865 40042 ft 471 kts 298°
2026-05-06 11:02 49.94362 74.97221 40043 ft 471 kts 298°
2026-05-06 11:02 49.97710 74.88614 40044 ft 471 kts 298°
2026-05-06 11:03 50.01090 74.79897 40043 ft 470 kts 298°
2026-05-06 11:03 50.04453 74.71188 40044 ft 470 kts 298°
2026-05-06 11:04 50.07857 74.62348 39967 ft 469 kts 298°
2026-05-06 11:04 50.09501 74.58070 39544 ft 469 kts 298°
2026-05-06 11:04 50.11187 74.53687 38788 ft 471 kts 298°
2026-05-06 11:04 50.12891 74.49277 37897 ft 475 kts 298°
2026-05-06 11:05 50.14572 74.44913 37038 ft 477 kts 298°
2026-05-06 11:05 50.16280 74.40468 36217 ft 477 kts 298°
2026-05-06 11:05 50.17986 74.36012 35400 ft 477 kts 298°
2026-05-06 11:05 50.19676 74.31579 34311 ft 474 kts 297°
2026-05-06 11:06 50.21330 74.27223 32932 ft 468 kts 297°
2026-05-06 11:06 50.22973 74.22919 31926 ft 455 kts 297°
2026-05-06 11:06 50.24607 74.18625 30822 ft 460 kts 297°
2026-05-06 11:06 50.26253 74.14246 29182 ft 466 kts 297°
2026-05-06 11:07 50.27924 74.09778 28260 ft 475 kts 297°
2026-05-06 11:07 50.29585 74.05344 27938 ft 476 kts 297°
2026-05-06 11:07 50.31255 74.00892 27616 ft 476 kts 298°
2026-05-06 11:07 50.32934 73.96415 27076 ft 473 kts 298°
2026-05-06 11:08 50.34574 73.92035 26488 ft 469 kts 298°
2026-05-06 11:08 50.36219 73.87635 25872 ft 464 kts 298°
2026-05-06 11:08 50.37823 73.83337 25278 ft 459 kts 298°
2026-05-06 11:08 50.39421 73.79047 24672 ft 455 kts 298°
2026-05-06 11:09 50.41015 73.74760 24123 ft 450 kts 298°
2026-05-06 11:09 50.42581 73.70543 23600 ft 444 kts 298°
2026-05-06 11:09 50.44103 73.66438 23095 ft 439 kts 298°
2026-05-06 11:09 50.45632 73.62304 22594 ft 434 kts 298°
2026-05-06 11:10 50.47147 73.58202 22091 ft 429 kts 298°
2026-05-06 11:10 50.48771 73.53796 21553 ft 424 kts 298°
2026-05-06 11:10 50.50222 73.49857 21072 ft 420 kts 298°
2026-05-06 11:10 50.51687 73.45872 20586 ft 416 kts 298°
2026-05-06 11:11 50.53138 73.41920 20098 ft 412 kts 298°
2026-05-06 11:11 50.54546 73.38077 19625 ft 408 kts 298°
2026-05-06 11:11 50.55973 73.34178 19146 ft 405 kts 297°
2026-05-06 11:11 50.57364 73.30358 18680 ft 402 kts 297°
2026-05-06 11:12 50.58749 73.26550 18206 ft 399 kts 297°
2026-05-06 11:12 50.60124 73.22768 17737 ft 396 kts 297°
2026-05-06 11:12 50.61492 73.19000 17268 ft 393 kts 297°
2026-05-06 11:12 50.62837 73.15296 16804 ft 391 kts 297°
2026-05-06 11:13 50.64194 73.11553 16328 ft 389 kts 297°
2026-05-06 11:13 50.65517 73.07901 15865 ft 387 kts 297°
2026-05-06 11:13 50.66848 73.04221 15392 ft 385 kts 297°
2026-05-06 11:13 50.68157 73.00595 14927 ft 383 kts 297°
2026-05-06 11:14 50.69476 72.96939 14457 ft 381 kts 297°
2026-05-06 11:14 50.70783 72.93311 13991 ft 378 kts 297°
2026-05-06 11:14 50.72030 72.89846 13549 ft 376 kts 297°
2026-05-06 11:14 50.73322 72.86252 13090 ft 374 kts 297°
2026-05-06 11:15 50.74592 72.82710 12639 ft 371 kts 297°
2026-05-06 11:15 50.75848 72.79207 12193 ft 369 kts 297°
2026-05-06 11:15 50.77116 72.75661 11740 ft 366 kts 297°
2026-05-06 11:15 50.78364 72.72169 11301 ft 363 kts 297°
2026-05-06 11:16 50.79581 72.68755 10973 ft 356 kts 297°
2026-05-06 11:16 50.80799 72.65339 10781 ft 344 kts 297°
2026-05-06 11:16 50.81987 72.62002 10673 ft 329 kts 297°
2026-05-06 11:16 50.83112 72.58836 10555 ft 317 kts 298°
2026-05-06 11:17 50.84187 72.55805 10451 ft 304 kts 298°
2026-05-06 11:17 50.85178 72.52786 10336 ft 291 kts 289°
2026-05-06 11:17 50.85693 72.49821 10242 ft 280 kts 281°
2026-05-06 11:17 50.86060 72.46737 10138 ft 279 kts 276°
2026-05-06 11:18 50.86162 72.43646 10038 ft 279 kts 270°
2026-05-06 11:18 50.86163 72.40529 9936 ft 278 kts 270°
2026-05-06 11:18 50.86157 72.37500 9837 ft 278 kts 270°
2026-05-06 11:18 50.86160 72.34439 9737 ft 278 kts 270°
2026-05-06 11:19 50.86172 72.31398 9638 ft 277 kts 270°
2026-05-06 11:19 50.86189 72.28370 9539 ft 277 kts 270°
2026-05-06 11:19 50.86209 72.25359 9440 ft 276 kts 270°
2026-05-06 11:19 50.86231 72.22343 9341 ft 276 kts 270°
2026-05-06 11:20 50.86254 72.19309 9242 ft 276 kts 270°
2026-05-06 11:20 50.86277 72.16304 9143 ft 275 kts 270°
2026-05-06 11:20 50.86299 72.13299 9044 ft 275 kts 270°
2026-05-06 11:20 50.86234 72.10254 8940 ft 275 kts 264°
2026-05-06 11:21 50.85949 72.07278 8842 ft 275 kts 260°
2026-05-06 11:21 50.85589 72.04280 8741 ft 275 kts 259°
2026-05-06 11:21 50.85216 72.01307 8640 ft 274 kts 259°
2026-05-06 11:21 50.84840 71.98338 8540 ft 274 kts 259°
2026-05-06 11:22 50.84462 71.95369 8440 ft 274 kts 259°
2026-05-06 11:22 50.84082 71.92403 8339 ft 274 kts 259°
2026-05-06 11:22 50.83701 71.89430 8238 ft 273 kts 259°
2026-05-06 11:22 50.83321 71.86472 8135 ft 273 kts 259°
2026-05-06 11:23 50.82945 71.83562 7993 ft 273 kts 259°
2026-05-06 11:23 50.82563 71.80615 7778 ft 272 kts 259°
2026-05-06 11:23 50.82188 71.77738 7565 ft 271 kts 259°
2026-05-06 11:23 50.81804 71.74813 7364 ft 271 kts 259°
2026-05-06 11:24 50.81417 71.71877 7152 ft 271 kts 259°
2026-05-06 11:24 50.81028 71.68941 6949 ft 270 kts 259°
2026-05-06 11:24 50.80644 71.66058 6750 ft 270 kts 259°
2026-05-06 11:24 50.80266 71.63233 6555 ft 269 kts 259°
2026-05-06 11:25 50.79875 71.60321 6354 ft 269 kts 259°
2026-05-06 11:25 50.79483 71.57410 6152 ft 269 kts 259°
2026-05-06 11:25 50.79212 71.54408 5876 ft 268 kts 276°
2026-05-06 11:25 50.79789 71.51466 5469 ft 268 kts 296°
2026-05-06 11:26 50.80627 71.48791 5135 ft 267 kts 298°
2026-05-06 11:26 50.81460 71.46153 4854 ft 264 kts 297°
2026-05-06 11:26 50.82261 71.43504 4638 ft 259 kts 296°
2026-05-06 11:26 50.83011 71.40925 4626 ft 245 kts 296°
2026-05-06 11:27 50.83719 71.38429 4595 ft 233 kts 295°
2026-05-06 11:27 50.84381 71.36063 4576 ft 218 kts 295°
2026-05-06 11:27 50.84977 71.33916 4525 ft 201 kts 294°
2026-05-06 11:27 50.85533 71.31892 4461 ft 185 kts 294°
2026-05-06 11:28 50.86042 71.30040 4395 ft 169 kts 295°
2026-05-06 11:28 50.86517 71.28316 4304 ft 163 kts 295°
2026-05-06 11:28 50.87201 71.26832 4110 ft 161 kts 329°
2026-05-06 11:28 50.88334 71.26437 4042 ft 163 kts 357°
2026-05-06 11:29 50.89503 71.26738 4004 ft 161 kts 27°
2026-05-06 11:29 50.90390 71.27899 4013 ft 155 kts 40°
2026-05-06 11:29 50.91170 71.29173 3904 ft 153 kts 43°
2026-05-06 11:29 50.91922 71.30420 3696 ft 151 kts 42°
2026-05-06 11:30 50.92664 71.31622 3497 ft 151 kts 41°
2026-05-06 11:30 50.93432 71.32838 3295 ft 151 kts 41°
2026-05-06 11:30 50.94182 71.34011 3096 ft 151 kts 41°
2026-05-06 11:30 50.94952 71.35209 2891 ft 151 kts 41°
2026-05-06 11:31 50.95709 71.36388 2688 ft 150 kts 41°
2026-05-06 11:31 50.96446 71.37536 2491 ft 150 kts 41°
2026-05-06 11:31 50.97201 71.38715 2289 ft 150 kts 41°
2026-05-06 11:31 50.97944 71.39876 2089 ft 149 kts 41°
2026-05-06 11:32 50.98672 71.41013 1896 ft 151 kts 41°
2026-05-06 11:32 50.99411 71.42169 1697 ft 151 kts 42°
2026-05-06 11:32 51.00103 71.43256 1472 ft 151 kts 41°
2026-05-06 11:32 51.00801 71.44317 1263 ft 149 kts 41°
2026-05-06 11:33 51.01911 71.46061 1179 ft 84 kts 45°
2026-05-06 11:33 51.02197 71.46508 1179 ft 41 kts 44°
2026-05-06 11:33 51.02408 71.46842 1179 ft 44 kts 45°
2026-05-06 11:34 51.02508 71.46944 1179 ft 6 kts 310°
2026-05-06 11:34 51.02543 71.46883 1179 ft 11 kts 313°
2026-05-06 11:34 51.02602 71.46787 1179 ft 12 kts 315°
2026-05-06 11:34 51.02625 71.46751 1179 ft 2 kts 314°
2026-05-06 11:35 51.02640 71.46727 1179 ft 3 kts 314°
2026-05-06 11:35 51.02661 71.46692 1179 ft 5 kts 314°
2026-05-06 11:35 51.02690 71.46644 1179 ft 6 kts 314°
2026-05-06 11:35 51.02710 71.46570 1179 ft 8 kts 264°
2026-05-06 11:36 51.02699 71.46468 1179 ft 10 kts 254°
2026-05-06 11:36 51.02660 71.46376 1179 ft 8 kts 225°
2026-05-06 11:36 51.02633 71.46333 1179 ft 4 kts 226°
2026-05-06 11:36 51.02611 71.46297 1179 ft 5 kts 226°
2026-05-06 11:37 51.02580 71.46244 1179 ft 6 kts 226°
2026-05-06 11:37 51.02543 71.46183 1179 ft 6 kts 225°
2026-05-06 11:37 51.02517 71.46139 1179 ft 2 kts 230°
2026-05-06 11:37 51.02503 71.46104 1179 ft 4 kts 243°
2026-05-06 11:38 51.02485 71.46054 1179 ft 5 kts 229°
2026-05-06 11:38 51.02468 71.46025 1179 ft 2 kts 225°
2026-05-06 11:38 51.02455 71.46005 1179 ft 2 kts 225°
2026-05-06 11:38 51.02440 71.45979 1179 ft 3 kts 225°
2026-05-06 11:39 51.02427 71.45959 1179 ft 3 kts 225°
2026-05-06 11:39 51.02419 71.45944 1179 ft 0 kts 225°